[[{"header":{"parameterUnit":"m.s-1","parameterCategory":1,"la1":30.2991,"la2":30.254,"lo1":-89.0895,"lo2":-89.0444,"dy":0.0017,"dx":0.0017,"nx":28,"ny":28,"refTime":"2025-05-17T21:00:00:Z","depth":0,"parameterNumber":2,"parameterNumberName":"U-component_of_WINDS"},"data":[0,0,0,0,0,0,0,0,0,0,0,0,0,0,0,0,0,0,0,0,0,0,0,0,0,0,0,0,0,0,0,0,0,0,0,0,0,0,0,0,0,0,0,0,0,0,0,0,0,0,0,0,0,0,0,0,0,0,0.9323,0.9324,0,0.9367,0.9368,0.9368,0.9363,0.9362,0.9362,0.9361,0.9405,0.9406,0.9408,0,0,0,0,0,0,0,0,0,0,0,0,0,0.9232,0.9234,0.9323,0.9324,0.9324,0.9367,0.9368,0.9369,0.9363,0.9362,0.9362,0.9361,0.9404,0.9406,0.9408,0,0,0,0,0,0,0,0,0,0,0,0,0,0.9273,0.9234,0.9323,0.9327,0.9328,0.9367,0.9368,0.9369,0.9363,0.9362,0.9361,0.936,0.9403,0.9406,0.9409,0.9447,0,0,0.9417,0.9418,0,0,0,0,0,0,0,0,0.9271,0.9277,0.9326,0.9327,0.9328,0.9359,0.9352,0.9395,0.9364,0.935,0.9361,0.936,0.939,0.9394,0.9404,0.9449,0.9451,0.9417,0.9419,0.942,0.9421,0,0,0,0,0,0,0,0.9268,0.9275,0.9341,0.9327,0.9328,0.9326,0.933,0.936,0.9375,0.9351,0.9351,0.9356,0.939,0.9402,0.9405,0.9451,0.9417,0.942,0.9421,0.9422,0.9527,0.9529,0,0,0,0,0,0,0.9265,0.9272,0.9339,0.9342,0.9296,0.9328,0.9333,0.935,0.9375,0.9378,0.9357,0.9356,0.9398,0.9402,0.9407,0.9452,0.942,0.9423,0.9424,0.9526,0.9528,0.9529,0,0,0,0,0,0,0.9263,0.9271,0.9338,0.9307,0.9316,0.9331,0.9349,0.9351,0.9363,0.938,0.9382,0.9366,0.9397,0.9403,0.9437,0.9454,0.9424,0.9426,0.9525,0.9527,0.9528,0.9543,0,0,0,0,0,0,0.926,0.927,0.9285,0.9308,0.9317,0.9367,0.935,0.9353,0.9368,0.9366,0.9389,0.9391,0.9397,0.9433,0.9439,0.9457,0.9428,0.9523,0.9526,0.9528,0.9541,0.9545,0.9549,0,0,0,0,0,0.9257,0.9288,0.9286,0.9294,0.9337,0.9368,0.9374,0.938,0.9369,0.9384,0.9395,0.9391,0.9451,0.9436,0.9444,0.9462,0.9522,0.9525,0.9528,0.954,0.9545,0.9549,0,0,0,0,0,0,0.9267,0.9291,0.9289,0.9328,0.9346,0.9367,0.9387,0.9385,0.9406,0.9404,0.941,0.9415,0.9449,0.9459,0.9442,0.95,0.9485,0.9489,0.9492,0.9496,0.95,0.9497,0.9431,0,0,0,0,0,0.9273,0.9298,0.9317,0.935,0.9359,0.9371,0.9385,0.9388,0.9407,0.9414,0.9428,0.9445,0.9468,0.9483,0.9505,0.9543,0.9547,0.9559,0.9563,0.9566,0.9569,0.9589,0.9594,0.9538,0.9537,0.9537,0,0,0.9288,0.9304,0.9319,0.9352,0.9367,0.9391,0.9378,0.9404,0.9422,0.9418,0.9451,0.9461,0.9481,0.9516,0.9533,0.9526,0.9586,0.9569,0.9572,0.9573,0.9592,0.9597,0.9602,0.9539,0.9539,0.9539,0,0,0.9325,0.9341,0.9369,0.9384,0.9405,0.9413,0.942,0.9441,0.9448,0.948,0.9478,0.9499,0.9538,0.9552,0.9564,0.9607,0.9603,0.9614,0.9633,0.9652,0.9656,0.966,0.9674,0.9679,0.9617,0.9617,0.9617,0,0.934,0.9377,0.9384,0.941,0.9424,0.9423,0.945,0.9464,0.9492,0.9501,0.9493,0.9542,0.9555,0.9594,0.9604,0.9614,0.9621,0.9611,0.9655,0.9659,0.9663,0.9676,0.9681,0.9618,0.9618,0.9618,0.9618,0,0.9393,0.9419,0.9439,0.9466,0.9483,0.951,0.9519,0.9535,0.9536,0.9545,0.9577,0.9593,0.9618,0.9627,0.9629,0.9665,0.966,0.9654,0.9639,0.9669,0.9682,0.9687,0.962,0.9619,0.9619,0.9619,0,0,0.9439,0.9469,0.9476,0.9487,0.9511,0.9531,0.9557,0.9581,0.9594,0.9613,0.9635,0.9668,0.9661,0.9675,0.9678,0.9695,0.9726,0.9686,0.9687,0.9692,0.9766,0.977,0.9776,0.9724,0.9725,0.9726,0.9764,0,0.9478,0.9526,0.9532,0.9573,0.9596,0.9595,0.9617,0.9634,0.9642,0.9662,0.9671,0.9694,0.9684,0.9692,0.9709,0.9719,0.9741,0.9716,0.9743,0.9744,0.9737,0.9783,0.9788,0.9823,0.9769,0.977,0.977,0,0.953,0.9551,0.9595,0.9615,0.9624,0.9645,0.9667,0.9687,0.9705,0.9709,0.9725,0.9725,0.9751,0.9736,0.9772,0.9755,0.9766,0.9772,0.9774,0.9776,0.9759,0.9785,0.9834,0.9839,0.9778,0.9778,0.9777,0,0.9557,0.9596,0.9627,0.9638,0.9662,0.9676,0.9686,0.9703,0.9717,0.9736,0.9745,0.9767,0.9779,0.9795,0.9802,0.979,0.9836,0.9822,0.984,0.984,0.9849,0.9848,0.99,0.9858,0.9858,0.9858,0.9858,0,0.96,0.9627,0.964,0.9659,0.9688,0.9695,0.9723,0.9733,0.9748,0.9768,0.9768,0.9787,0.9794,0.9814,0.9819,0.9846,0.9852,0.9856,0.9857,0.9855,0.9855,0.9862,0.986,0.9859,0.9859,0.9859,0.9858,0,0.9635,0.9645,0.9679,0.9699,0.9704,0.9725,0.9741,0.9759,0.9767,0.9792,0.9799,0.9811,0.9834,0.9842,0.9869,0.9873,0.9905,0.9904,0.9899,0.9898,0.9916,0.9914,0.9973,0.9981,0.9935,0.9935,0.9936,0,0.9662,0.9682,0.9704,0.9718,0.9729,0.9751,0.9765,0.9772,0.9787,0.9808,0.9823,0.9846,0.9865,0.9901,0.9912,0.9933,0.9932,0.9951,0.9935,0.9932,0.9931,0.9929,0.9931,0.9954,0.9954,0.9955,0.9955,0,0.9707,0.971,0.9731,0.9754,0.9771,0.9788,0.9806,0.9817,0.9826,0.9842,0.9866,0.988,0.9908,0.993,0.9952,0.9961,0.9959,0.996,0.9965,0.9964,0.9959,0.9961,0.9906,0.9959,0.9958,0.9958,0.9958,0.9958,0.9738,0.9755,0.9773,0.9796,0.981,0.9826,0.9843,0.9853,0.9873,0.9897,0.99,0.9925,0.9941,0.9969,0.998,0.9999,0.9994,1.0001,1.0003,1.0005,1.0005,0.9957,1.0003,1.0003,1.0003,1.0003,1.0003,0,0.9782,0.9793,0.9814,0.9838,0.9856,0.9853,0.9872,0.9887,0.9909,0.9925,0.9943,0.9969,0.9991,1.0003,1.0024,1.0037,1.0036,1.0042,1.0041,1.0043,1.001,1.0003,1.0042,1.0042,1.0042,1.0042,1.0042,1.0042,0.9807,0.9836,0.9842,0.9878,0.9889,0.9914,0.9924,0.9939,0.9951,0.9981,0.9999,1.0007,1.0021,1.0043,1.0062,1.0065,1.0072,1.0078,1.008,1.0049,1.0045,1.0041,1.0035,1.008,1.008,1.0112,1.0112,1.0112]},{"header":{"parameterUnit":"m.s-1","parameterCategory":1,"la1":30.2991,"la2":30.254,"lo1":-89.0895,"lo2":-89.0444,"dy":0.0017,"dx":0.0017,"nx":28,"ny":28,"refTime":"2025-05-17T21:00:00:Z","depth":0,"parameterNumber":3,"parameterNumberName":"V-component_of_WINDS"},"data":[0,0,0,0,0,0,0,0,0,0,0,0,0,0,0,0,0,0,0,0,0,0,0,0,0,0,0,0,0,0,0,0,0,0,0,0,0,0,0,0,0,0,0,0,0,0,0,0,0,0,0,0,0,0,0,0,0,0,3.3602,3.3604,0,3.3731,3.3733,3.3734,3.3736,3.3734,3.3733,3.3731,3.3859,3.3864,3.3869,0,0,0,0,0,0,0,0,0,0,0,0,0,3.3352,3.3357,3.3602,3.3604,3.3605,3.3731,3.3733,3.3735,3.3736,3.3734,3.3732,3.373,3.3858,3.3864,3.387,0,0,0,0,0,0,0,0,0,0,0,0,0,3.3469,3.3358,3.3602,3.3621,3.3624,3.3731,3.3733,3.3735,3.3737,3.3734,3.3732,3.3729,3.3856,3.3863,3.387,3.3965,0,0,3.3893,3.3896,0,0,0,0,0,0,0,0,3.3462,3.3478,3.3617,3.362,3.3624,3.3715,3.3692,3.3812,3.3737,3.3694,3.3731,3.3728,3.3813,3.3824,3.3853,3.3971,3.3976,3.3894,3.3898,3.3901,3.3903,0,0,0,0,0,0,0,3.3454,3.3473,3.3653,3.3619,3.3623,3.3622,3.3636,3.3715,3.3765,3.3697,3.3698,3.3713,3.3814,3.3846,3.3856,3.3978,3.3893,3.39,3.3905,3.3907,3.418,3.4182,0,0,0,0,0,0,3.3443,3.3466,3.3649,3.3657,3.3536,3.3629,3.3644,3.3688,3.3765,3.3774,3.3715,3.3713,3.3835,3.3848,3.3861,3.3977,3.3901,3.3908,3.3912,3.4177,3.418,3.4183,0,0,0,0,0,0,3.3438,3.3459,3.3644,3.3562,3.3585,3.3636,3.3685,3.3692,3.3724,3.3778,3.3787,3.3739,3.3833,3.385,3.3939,3.3981,3.3911,3.3918,3.4174,3.4178,3.4182,3.421,0,0,0,0,0,0,3.343,3.3457,3.3495,3.3563,3.359,3.3721,3.3688,3.3696,3.3737,3.3735,3.3802,3.3811,3.3833,3.3928,3.3947,3.399,3.3924,3.417,3.4175,3.418,3.4205,3.4214,3.4222,0,0,0,0,0,3.3421,3.3496,3.3497,3.3519,3.3638,3.3724,3.3739,3.3764,3.374,3.3778,3.3813,3.3809,3.3974,3.3937,3.3958,3.4005,3.4167,3.4174,3.418,3.4201,3.4212,3.4222,0,0,0,0,0,0,3.3431,3.3506,3.3507,3.3606,3.3659,3.3724,3.3772,3.3775,3.3834,3.3829,3.3856,3.3871,3.396,3.3991,3.3949,3.41,3.4068,3.4078,3.4077,3.4088,3.4096,3.4087,3.393,0,0,0,0,0,3.3445,3.351,3.3571,3.3653,3.3679,3.3721,3.376,3.3774,3.3829,3.3851,3.3892,3.3945,3.4008,3.4049,3.4111,3.4209,3.4224,3.4251,3.426,3.4266,3.4276,3.433,3.4343,3.4204,3.4204,3.4204,0,0,3.3474,3.3523,3.3562,3.3656,3.3699,3.3764,3.374,3.381,3.3859,3.3861,3.3948,3.398,3.404,3.4135,3.4178,3.4163,3.4317,3.4274,3.4279,3.4285,3.4338,3.4351,3.4363,3.4208,3.4207,3.4207,0,0,3.356,3.3604,3.3677,3.372,3.3786,3.3813,3.383,3.3896,3.3917,3.4005,3.4008,3.4066,3.4175,3.4218,3.4254,3.4356,3.4355,3.4375,3.4419,3.4472,3.4483,3.4493,3.453,3.4543,3.4384,3.4384,3.4384,0,3.3588,3.3688,3.3714,3.3786,3.3827,3.3833,3.3906,3.3947,3.4028,3.4055,3.4038,3.4175,3.4216,3.432,3.4346,3.4374,3.4395,3.4368,3.448,3.449,3.4499,3.4535,3.4549,3.4386,3.4386,3.4386,3.4385,0,3.3719,3.3789,3.384,3.392,3.3966,3.4038,3.4074,3.4118,3.4128,3.4157,3.4246,3.4295,3.4367,3.4392,3.4402,3.4498,3.4487,3.4474,3.4442,3.4514,3.4548,3.4562,3.4389,3.4388,3.4388,3.4387,0,0,3.3816,3.3909,3.3928,3.3964,3.4036,3.409,3.4162,3.4233,3.4271,3.4326,3.4387,3.4479,3.4468,3.4508,3.4523,3.4569,3.4648,3.4551,3.4553,3.4568,3.4757,3.4767,3.4782,3.4647,3.465,3.4652,3.4752,0,3.3911,3.404,3.4065,3.4178,3.4242,3.4248,3.4311,3.4361,3.439,3.4447,3.4478,3.4543,3.4524,3.4548,3.4594,3.4629,3.4686,3.4622,3.4703,3.4706,3.4689,3.48,3.481,3.4902,3.4765,3.4768,3.4769,0,3.4039,3.4099,3.4218,3.4282,3.431,3.4366,3.4434,3.4489,3.4546,3.4563,3.4609,3.4619,3.4692,3.4657,3.4758,3.4714,3.4748,3.477,3.4774,3.4783,3.4742,3.4812,3.4932,3.4946,3.479,3.4788,3.4787,0,3.4098,3.4209,3.4295,3.4326,3.4402,3.4441,3.4475,3.4529,3.4571,3.4629,3.4656,3.4722,3.4758,3.4807,3.4834,3.4805,3.4934,3.49,3.495,3.4949,3.4977,3.4975,3.5105,3.4998,3.4998,3.4998,3.4997,0,3.4202,3.4275,3.4323,3.4376,3.4457,3.4484,3.4563,3.4596,3.4644,3.4703,3.4711,3.4765,3.4797,3.4855,3.4876,3.4957,3.4973,3.4989,3.4994,3.4989,3.4987,3.5012,3.5007,3.5001,3.5001,3.5,3.4999,0,3.4283,3.4318,3.4412,3.4477,3.4495,3.4552,3.4607,3.4658,3.4686,3.476,3.4778,3.4822,3.4892,3.4923,3.5008,3.5022,3.5115,3.5114,3.5096,3.5098,3.5146,3.5142,3.5298,3.532,3.5198,3.5199,3.52,0,3.4347,3.4403,3.4475,3.4515,3.455,3.4615,3.4658,3.4686,3.473,3.4799,3.4841,3.4911,3.4969,3.5079,3.5118,3.5183,3.5185,3.5235,3.5194,3.5188,3.5186,3.5183,3.5189,3.5242,3.5243,3.5244,3.5245,0,3.4458,3.4472,3.4534,3.4603,3.4654,3.4709,3.4762,3.4794,3.4831,3.4879,3.4951,3.4996,3.5083,3.5153,3.522,3.5253,3.5255,3.5258,3.5273,3.5269,3.5256,3.5264,3.5117,3.5254,3.5253,3.5252,3.5252,3.5252,3.4533,3.4583,3.4642,3.471,3.4754,3.4804,3.4855,3.489,3.4951,3.5026,3.5038,3.5115,3.5169,3.5261,3.5296,3.5355,3.5343,3.5365,3.537,3.5376,3.5379,3.5246,3.5367,3.5367,3.5367,3.5367,3.5367,0,3.4645,3.4683,3.4746,3.4821,3.4875,3.4873,3.4932,3.4977,3.5045,3.5096,3.5153,3.5235,3.5303,3.5347,3.5414,3.5453,3.5456,3.547,3.5468,3.5475,3.5385,3.5366,3.5467,3.5467,3.5467,3.5467,3.5467,3.5467,3.4709,3.4795,3.4816,3.4923,3.496,3.5037,3.5071,3.5116,3.5158,3.525,3.5306,3.5335,3.5383,3.5454,3.5516,3.5527,3.5551,3.5566,3.5577,3.5492,3.5482,3.5472,3.5454,3.5571,3.5571,3.5662,3.5663,3.5663]}]]